Weather Roundup
Issued by NWS Chicago, IL

Home | Current Version | Previous Version | Text Only | Print | Product List | Glossary On
Versions: 1 2 3 4 5 6 7 8 9 10 11 12 13 14 15 16 17 18 19 20 21 22 23 24 25 26 27 28 29 30 31 32 33 34 35 36 37 38 39 40 41 42 43 44 45 46 47 48 49 50
028
NZUS59 KLOT 170408
HRRLOT

CHICAGO AREA WEATHER ROUNDUP
NATIONAL WEATHER SERVICE CHICAGO/ROMEOVILLE IL
1000 PM CST SAT DEC 16 2017

NOTE: "FAIR" INDICATES FEW OR NO CLOUDS BELOW 12,000 FEET WITH NO
SIGNIFICANT WEATHER AND/OR OBSTRUCTIONS TO VISIBILITY.

* THESE STATIONS ARE NOT UNDER NWS QUALITY CONTROL. THEY ALSO MAY NOT
  REPORT WEATHER SUCH AS PRECIPITATION OR FOG.

ILZ005-006-012>014-019>023-170500-
NORTHEAST ILLINOIS

CITY           SKY/WX    TMP DP  RH WIND       PRES   REMARKS
OHARE          PTCLDY    28  26  92 N5        30.06R WCI  23
MIDWAY         PTCLDY    38  33  82 N3        30.06R
AURORA         CLOUDY    30  24  78 NE7       30.05R WCI  23
LANSING*       CLOUDY    25  24  93 CALM      30.05S
JOLIET*        CLOUDY    28  24  87 CALM      30.05S
WAUKEGAN       PTCLDY    31  30  96 CALM      30.07R
DUPAGE AIRPORT CLEAR     26  25  96 N7        30.04R WCI  18
WHEELING       CLEAR     31  29  92 CALM      30.08R
KANKAKEE*      CLOUDY    30  22  74 S5        30.06R WCI  25
MORRIS*        CLOUDY    31  23  71 CALM      30.04R
LEWIS AIRPORT* CLOUDY    30  26  83 E3        30.05R
NORTHERLY ISL    N/A     35  32  88 N2          N/A
$$

WIZ051-052-058>065-066-070>072-170500-
SOUTHEAST WISCONSIN

CITY           SKY/WX    TMP DP  RH WIND       PRES   REMARKS
MILWAUKEE      CLOUDY    36  32  85 E13       30.10R
KENOSHA*       MOCLDY    36  32  85 NE10      30.07R FOG
RACINE*        CLOUDY    35  33  92 E12       30.10R WCI  27
BURLINGTON     CLOUDY    51  51 100 NE5       30.08R FOG
WAUKESHA       CLOUDY    32  30  93 NE9       30.10R WCI  24
WEST BEND      CLOUDY    30  30 100 NE3       30.10R
$$

INZ001>003-010>013-019-020-170500-
NORTHWEST INDIANA

CITY           SKY/WX    TMP DP  RH WIND       PRES   REMARKS
GARY*          CLEAR     28  27  93 S5        30.06R WCI  23
MICHIGAN CITY* NOT AVBL
RENSSELAER*    NOT AVBL
VALPARAISO     CLOUDY    32  26  78 NE3       30.06S
$$

LMZ740>746-170500-
SOUTHERN LAKE MICHIGAN

STATION/POSITION TIME  SKY/WX   TEMP WIND        PRES    VSBY
                                AIR  DIR/SP/G
                 (UTC)          (F)  (DEG/KT/KT) (MB)    (MI)
HARRISON CRIB    0340            41   70/  5/  5   N/A
BURNHAM HARBOR   0400            35  330/  2/  4   N/A
CALUMET HARBOR   0348            35  340/  4/  5 1017.1R
BURNS HARBOR     0340            38  180/  4/  6 1018.3R
MICHIGAN CITY    0340            37  130/  8/  9   N/A
$$

ABBREVIATIONS USED IN REMARKS
   TC - TEMPERATURE IN CELSIUS
  WCI - WIND CHILL INDEX
   HX - HEAT INDEX
  VSB - VISIBILITY
$$




USA.gov is the U.S. government's official web portal to all federal, state and local government web resources and services.